Location: Unspecified
(48.8656°N, 0.0000°E)
Time: 06:35:21
(UTC+00:00)

Vanguard 1 Rocket - Pass Details

Date: 21 June 2019
Orbit: 651 x 4225 km, 34.3° (Epoch: 16 July)

Event Time Altitude Azimuth Distance (km) Brightness Sun altitude
Rises 18:42:46 0° 244° (WSW) 6,947 12.6 11.1°
Reaches altitude 10° 18:48:41 10° 237° (WSW) 5,308 11.8 10.2°
Maximum altitude 19:00:10 33° 182° (S) 2,528 9.5 8.5°
Drops below altitude 10° 19:06:52 10° 121° (ESE) 3,052 9.5 7.5°
Sets 19:09:17 0° 110° (ESE) 3,720 9.9 7.2°
